Weather History for Sanford, ME

Change the Weather History Date:

Thursday, February 14, 2013

  Actual Average Record
Temperature  
Mean Temperature 28 °F -  
Max Temperature 39 °F 32 °F 51 °F (2011)
Min Temperature 17 °F 13 °F -18 °F (2003)
Degree Days  
Heating Degree Days 37    
Moisture  
Dew Point 18 °F    
Average Humidity 63    
Maximum Humidity 100    
Minimum Humidity 41    
Precipitation  
Precipitation 0.00 in - - ()
Sea Level Pressure  
Sea Level Pressure 29.86 in    
Wind  
Wind Speed 5 mph (NW)    
Max Wind Speed 14 mph    
Max Gust Speed 17 mph    
Visibility 10 miles    
Events      
Averages and records for this station are not official NWS values.
T = Trace of Precipitation, MM = Missing Value Source: NWS Daily Summary

Daily Weather History Graph

Daily Weather History Graph

Search for Another Location

Airport:

Trip Planner

Search our weather history database for the weather conditions in past years. The results will help you decide how hot, cold, wet, or windy it might be!

Date:

Astronomy

Feb. 14, 2013 Rise Set
Actual Time 6:42 AM EST 5:12 PM EST
Civil Twilight 6:12 AM EST 5:41 PM EST
Nautical Twilight 5:39 AM EST 6:15 PM EST
Astronomical Twilight 5:06 AM EST 6:48 PM EST
Moon 8:32 AM EST (2/14) 10:23 PM EST (2/14)
Length of Visible Light 11h 29m
Length of Day
10h 30m
Waxing Crescent, 21% of the Moon is Illuminated
Feb 14
Waxing Crescent
Feb 17
First Quarter
Feb 25
Full
Mar 4
Last Quarter
Mar 11
New

Hourly Weather History & Observations

Time (EST) Temp. Windchill Dew Point Humidity Pressure Visibility Wind Dir Wind Speed Gust Speed Precip Events Conditions
12:15 AM 30.2 °F 23.4 °F 23.0 °F 75% 29.71 in 10.0 mi North 6.9 mph - N/A   Overcast
12:35 AM 30.2 °F 23.4 °F 17.6 °F 60% 29.69 in 10.0 mi North 6.9 mph - N/A   Overcast
12:55 AM 28.4 °F 20.4 °F 17.6 °F 64% 29.69 in 10.0 mi North 8.1 mph - N/A   Overcast
1:15 AM 28.4 °F - 21.2 °F 74% 29.73 in 10.0 mi Calm Calm - N/A   Overcast
1:35 AM 28.4 °F - 14.0 °F 55% 29.74 in 10.0 mi Calm Calm - N/A   Overcast
1:55 AM 26.6 °F - 26.6 °F 100% 29.74 in 10.0 mi Calm Calm - N/A   Overcast
2:15 AM 26.6 °F 22.6 °F 19.4 °F 74% 29.74 in 10.0 mi NNW 3.5 mph - N/A   Overcast
2:35 AM 30.2 °F 23.4 °F 15.8 °F 55% 29.73 in 10.0 mi North 6.9 mph - N/A   Overcast
3:15 AM 30.2 °F 23.4 °F 17.6 °F 60% 29.73 in 10.0 mi North 6.9 mph - N/A   Overcast
3:35 AM 30.2 °F 23.4 °F 17.6 °F 60% 29.74 in 10.0 mi North 6.9 mph - N/A   Overcast
3:55 AM 30.2 °F 23.4 °F 24.8 °F 80% 29.75 in 10.0 mi North 6.9 mph - N/A   Overcast
4:15 AM 30.2 °F 23.4 °F 17.6 °F 60% 29.75 in 10.0 mi North 6.9 mph - N/A   Overcast
4:35 AM 30.2 °F 23.4 °F 17.6 °F 60% 29.76 in 10.0 mi North 6.9 mph - N/A   Overcast
4:55 AM 30.2 °F 25.4 °F 24.8 °F 80% 29.77 in 10.0 mi NNW 4.6 mph - N/A   Overcast
5:15 AM 30.2 °F 25.4 °F 15.8 °F 55% 29.77 in 10.0 mi North 4.6 mph - N/A   Overcast
5:35 AM 28.4 °F 23.3 °F 15.8 °F 59% 29.77 in 10.0 mi North 4.6 mph - N/A   Overcast
5:55 AM 26.6 °F 22.6 °F 23.0 °F 86% 29.77 in 10.0 mi NNW 3.5 mph - N/A   Overcast
6:15 AM 26.6 °F 21.2 °F 17.6 °F 69% 29.77 in 10.0 mi NNW 4.6 mph - N/A   Mostly Cloudy
6:35 AM 28.4 °F 23.3 °F 14.0 °F 55% 29.78 in 10.0 mi NW 4.6 mph - N/A   Partly Cloudy
6:55 AM 26.6 °F 21.2 °F 24.8 °F 93% 29.79 in 10.0 mi NW 4.6 mph - N/A   Partly Cloudy
7:15 AM 26.6 °F 21.2 °F 15.8 °F 64% 29.80 in 10.0 mi NW 4.6 mph - N/A   Partly Cloudy
7:35 AM 28.4 °F 22.2 °F 12.2 °F 51% 29.81 in 10.0 mi NW 5.8 mph - N/A   Clear
7:55 AM 28.4 °F 23.3 °F 23.0 °F 80% 29.82 in 10.0 mi NW 4.6 mph - N/A   Clear
8:15 AM 30.2 °F 24.3 °F 17.6 °F 60% 29.82 in 8.0 mi NW 5.8 mph - N/A   Clear
8:35 AM 32.0 °F 27.5 °F 15.8 °F 51% 29.82 in 10.0 mi NNW 4.6 mph - N/A   Clear
8:55 AM 33.8 °F 28.6 °F 19.4 °F 56% 29.83 in 10.0 mi NNW 5.8 mph - N/A   Clear
9:15 AM 33.8 °F 27.0 °F 21.2 °F 60% 29.84 in 10.0 mi NNW 8.1 mph - N/A   Clear
9:35 AM 33.8 °F 25.8 °F 17.6 °F 52% 29.85 in 10.0 mi North 10.4 mph 17.3 mph N/A   Scattered Clouds
9:55 AM 33.8 °F 25.8 °F 15.8 °F 48% 29.85 in 10.0 mi NNE 10.4 mph - N/A   Partly Cloudy
10:16 AM 35.6 °F 28.0 °F 15.8 °F 44% 29.86 in 10.0 mi NNW 10.4 mph - N/A   Scattered Clouds
10:35 AM 37.4 °F 32.1 °F 17.6 °F 45% 29.85 in 10.0 mi NNW 6.9 mph 16.1 mph N/A   Mostly Cloudy
10:55 AM 35.6 °F 29.9 °F 19.4 °F 52% 29.86 in 10.0 mi NNW 6.9 mph - N/A   Overcast
11:35 AM 37.4 °F 30.8 °F 19.4 °F 48% 29.87 in 10.0 mi NNW 9.2 mph - N/A   Overcast
11:55 AM 37.4 °F 31.4 °F 19.4 °F 48% 29.86 in 10.0 mi WNW 8.1 mph - N/A   Scattered Clouds
12:15 PM 37.4 °F 30.3 °F 19.4 °F 48% 29.86 in 10.0 mi WSW 10.4 mph 16.1 mph N/A   Partly Cloudy
12:35 PM 39.2 °F 31.6 °F 17.6 °F 42% 29.86 in 10.0 mi West 12.7 mph - N/A   Clear
12:55 PM 39.2 °F 31.2 °F 17.6 °F 42% 29.85 in 10.0 mi WSW 13.8 mph - N/A   Clear
1:15 PM 37.4 °F 30.8 °F 15.8 °F 41% 29.86 in 10.0 mi WNW 9.2 mph - N/A   Clear
1:35 PM 39.2 °F 33.6 °F 17.6 °F 42% 29.86 in 10.0 mi WSW 8.1 mph - N/A   Clear
1:55 PM 37.4 °F 32.1 °F 17.6 °F 45% 29.87 in 10.0 mi West 6.9 mph - N/A   Clear
2:15 PM 39.2 °F 34.2 °F 17.6 °F 42% 29.87 in 10.0 mi West 6.9 mph - N/A   Clear
2:35 PM 39.2 °F 33.6 °F 19.4 °F 45% 29.87 in 10.0 mi WSW 8.1 mph - N/A   Clear
2:55 PM 37.4 °F 32.1 °F 19.4 °F 48% 29.87 in 10.0 mi West 6.9 mph - N/A   Clear
3:15 PM 39.2 °F 34.2 °F 17.6 °F 42% 29.87 in 10.0 mi West 6.9 mph - N/A   Clear
3:35 PM 39.2 °F 34.2 °F 17.6 °F 42% 29.89 in 10.0 mi WSW 6.9 mph - N/A   Clear
3:55 PM 37.4 °F 32.1 °F 19.4 °F 48% 29.89 in 10.0 mi SW 6.9 mph - N/A   Clear
4:15 PM 37.4 °F 31.4 °F 17.6 °F 45% 29.90 in 10.0 mi WSW 8.1 mph - N/A   Partly Cloudy
4:35 PM 37.4 °F 34.9 °F 15.8 °F 41% 29.90 in 10.0 mi West 3.5 mph - N/A   Clear
4:55 PM 37.4 °F 32.8 °F 17.6 °F 45% 29.91 in 10.0 mi West 5.8 mph - N/A   Clear
5:15 PM 33.8 °F 30.8 °F 17.6 °F 52% 29.92 in 10.0 mi WSW 3.5 mph - N/A   Clear
5:35 PM 30.2 °F - 19.4 °F 64% 29.93 in 10.0 mi Calm Calm - N/A   Clear
5:55 PM 28.4 °F - 19.4 °F 69% 29.94 in 10.0 mi Calm Calm - N/A   Clear
6:15 PM 26.6 °F - 21.2 °F 80% 29.94 in 10.0 mi Calm Calm - N/A   Clear
6:35 PM 24.8 °F - 21.2 °F 86% 29.95 in 10.0 mi Calm Calm - N/A   Clear
6:55 PM 24.8 °F - 17.6 °F 74% 29.95 in 10.0 mi Calm Calm - N/A   Clear
7:15 PM 24.8 °F - 15.8 °F 69% 29.96 in 10.0 mi Calm Calm - N/A   Clear
7:35 PM 23.0 °F - 14.0 °F 68% 29.97 in 10.0 mi Calm Calm - N/A   Clear
7:55 PM 21.2 °F - 8.6 °F 58% 29.96 in 10.0 mi Calm Calm - N/A   Clear
8:15 PM 21.2 °F - 17.6 °F 86% 29.97 in 10.0 mi Calm Calm - N/A   Clear
8:35 PM 21.2 °F - 19.4 °F 93% 29.97 in 10.0 mi Calm Calm - N/A   Clear
8:55 PM 19.4 °F - 12.2 °F 74% 29.97 in 10.0 mi Calm Calm - N/A   Clear
9:15 PM 19.4 °F - 8.6 °F 63% 29.97 in 10.0 mi Calm Calm - N/A   Clear
9:35 PM 19.4 °F - 19.4 °F 100% 29.96 in 10.0 mi Calm Calm - N/A   Clear
9:55 PM 19.4 °F - 12.2 °F 74% 29.95 in 10.0 mi Calm Calm - N/A   Clear
10:15 PM 19.4 °F - 12.2 °F 74% 29.95 in 10.0 mi Calm Calm - N/A   Clear
10:35 PM 17.6 °F 12.3 °F 15.8 °F 93% 29.96 in 10.0 mi West 3.5 mph - N/A   Clear
10:55 PM 21.2 °F - 10.4 °F 63% 29.96 in 10.0 mi Calm Calm - N/A   Mostly Cloudy
11:15 PM 21.2 °F - 19.4 °F 93% 29.97 in 10.0 mi Calm Calm - N/A   Overcast
11:35 PM 21.2 °F - 12.2 °F 68% 29.97 in 10.0 mi Calm Calm - N/A   Overcast
11:55 PM 21.2 °F - 17.6 °F 86% 29.96 in 10.0 mi Calm Calm - N/A   Overcast